Meteo Giornale » Osservazioni meteo Stati Uniti (USA) » Tullahoma

ore: 12:35 - Osservazioni Meteo Tullahoma
Lat. 35° 23' N Lon. 86° 15' W Alt. 331 metri s.l.m.

molto_nuvoloso

32 °C

Molto Nuvoloso

Temp. 24 Ore

20 °C

34 °C

Ovest/Sud-Ovest

7.4 Km/h

Dew point 20 °C

Umidità 49 %

Visibilità  10 Km

Il sole sorge alle ore 06:16

Il sole tramonta alle ore 19:13

Data e Ora Cielo e Fenomeni T °C DP °C Um. % Pres. hPa Vis. km Vento km/h
Oggi h: 12:35 molto_nuvoloso Molto Nuvoloso 32 20 49 1021 10 O/SO 7.4
Oggi h: 12:15 molto_nuvoloso Molto Nuvoloso 31 20 52 1021 10 N 0
Oggi h: 11:55 coperto Coperto 31 21 55 1021 10 N 5.5
Oggi h: 11:35 molto_nuvoloso Molto Nuvoloso 31 21 55 1021 10 S 11.1
Oggi h: 11:15 molto_nuvoloso Molto Nuvoloso 32 21 52 1021 10 S/SO 11.1
Oggi h: 10:55 molto_nuvoloso Molto Nuvoloso 32 21 52 1021 10 O/SO 13
Oggi h: 10:35 poco_nuvoloso Poco Nuvoloso 31 21 55 1021 10 S/SO 9.3
Oggi h: 10:15 sereno Sereno 30 21 58 1022 10 SO 13
Oggi h: 09:55 sereno Sereno 30 22 62 1021 10 S/SO 9.3
Oggi h: 09:35 sereno Sereno 29 22 66 1021 10 S/SO 11.1
Oggi h: 09:15 sereno Sereno 29 22 66 1021 10 SO 13
Oggi h: 08:55 sereno Sereno 28 22 69 1021 10 N 7.4
Oggi h: 08:35 sereno Sereno 27 22 74 1021 10 S 9.3
Oggi h: 08:15 sereno Sereno 26 21 73 1021 10 N 5.5
Oggi h: 07:55 sereno Sereno 25 22 83 1021 10 N 0
Oggi h: 07:35 sereno Sereno 24 22 88 1021 10 N 0
Oggi h: 07:15 sereno Sereno 22 22 100 1021 10 N 0
Oggi h: 06:55 sereno Sereno 20 20 100 1020 10 N 0
Oggi h: 06:35 sereno Sereno 20 20 100 1020 10 N 0
Oggi h: 06:15 sereno Sereno 20 20 100 1020 10 N 0
Oggi h: 05:55 sereno Sereno 20 20 100 1020 10 N 0
Oggi h: 05:35 sereno Sereno 20 20 100 1020 10 N 0
Oggi h: 05:15 sereno Sereno 21 21 100 1020 10 N 0
Oggi h: 04:55 sereno Sereno 21 21 100 1019 10 N 0
Oggi h: 04:35 sereno Sereno 21 21 100 1019 10 N 0
Oggi h: 04:15 nuvoloso Nuvoloso 21 21 100 1019 14 N 0
Oggi h: 03:55 nuvoloso Nuvoloso 20 20 100 1019 14 N 0
Oggi h: 03:35 sereno Sereno 20 20 100 1019 10 N 0
Oggi h: 03:15 sereno Sereno 20 20 100 1019 14 N 0
Oggi h: 02:55 sereno Sereno 21 20 94 1019 10 N 0
Oggi h: 02:35 sereno Sereno 21 21 100 1019 10 N 0
Oggi h: 02:15 sereno Sereno 21 21 100 1019 10 N 0
Oggi h: 01:55 sereno Sereno 21 21 100 1019 10 N 0
Oggi h: 01:35 sereno Sereno 21 21 100 1019 10 N 0
Oggi h: 01:15 sereno Sereno 21 21 100 1019 10 N 0
Oggi h: 00:55 sereno Sereno 22 21 94 1020 10 N 0
Oggi h: 00:35 sereno Sereno 21 21 100 1019 10 N 0
Oggi h: 00:15 sereno Sereno 22 21 94 1019 10 N 0
Ieri h: 23:55 sereno Sereno 22 21 94 1019 10 N 0
Ieri h: 23:35 sereno Sereno 22 21 94 1019 10 N 0
Ieri h: 23:15 sereno Sereno 22 21 94 1019 10 N 0
Ieri h: 22:55 sereno Sereno 23 21 88 1019 10 N 0
Ieri h: 22:35 sereno Sereno 23 21 88 1019 10 N 0
Ieri h: 22:15 sereno Sereno 23 21 88 1019 10 N 0
Ieri h: 21:55 sereno Sereno 23 21 88 1020 10 N 0
Ieri h: 21:35 sereno Sereno 24 21 83 1019 10 N 0
Ieri h: 21:15 sereno Sereno 24 21 83 1019 10 N 0
Ieri h: 20:55 sereno Sereno 24 21 83 1019 10 N 0
Ieri h: 20:35 sereno Sereno 25 21 78 1019 10 N 0
Ieri h: 20:15 sereno Sereno 26 21 73 1019 10 N 0
Ieri h: 19:55 sereno Sereno 27 21 69 1019 10 N 0
Ieri h: 19:35 sereno Sereno 28 20 61 1018 10 N 0
Ieri h: 19:15 sereno Sereno 29 20 58 1018 10 N 5.5
Ieri h: 18:55 sereno Sereno 30 20 55 1018 10 S 9.3
Ieri h: 18:35 sereno Sereno 30 20 55 1018 10 S 7.4
Ieri h: 18:15 sereno Sereno 31 20 52 1018 10 S 9.3
Ieri h: 17:55 poco_nuvoloso Poco Nuvoloso 32 20 49 1018 10 S 13
Ieri h: 17:35 poco_nuvoloso Poco Nuvoloso 32 20 49 1018 10 S 13
Ieri h: 17:15 poco_nuvoloso Poco Nuvoloso 33 19 43 1018 10 S 11.1
Ieri h: 16:55 molto_nuvoloso Molto Nuvoloso 33 19 43 1018 10 S 13
Ieri h: 16:35 coperto Coperto 32 20 49 1018 10 S/SE 11.1
Ieri h: 16:15 molto_nuvoloso Molto Nuvoloso 32 20 49 1018 10 SE 11.1
Ieri h: 15:55 molto_nuvoloso Molto Nuvoloso 33 19 43 1018 10 S/SE 11.1
Ieri h: 15:35 molto_nuvoloso Molto Nuvoloso 32 19 46 1019 10 N 0
Ieri h: 15:15 molto_nuvoloso Molto Nuvoloso 34 19 41 1019 10 S/SE 11.1
Ieri h: 14:55 molto_nuvoloso Molto Nuvoloso 33 19 43 1019 10 S/SE 13
Ieri h: 14:35 molto_nuvoloso Molto Nuvoloso 33 19 43 1020 10 N 11.1
Ieri h: 14:15 molto_nuvoloso Molto Nuvoloso 33 20 46 1020 10 S 16.7
Ieri h: 13:55 nuvoloso Nuvoloso 32 20 49 1020 10 S/SE 13
Ieri h: 13:35 nuvoloso Nuvoloso 32 20 49 1020 10 S/SO 13